Precipitable_Water
0.26 0.20 0.15 0.14 0.15 0.16 0.17 0.17 0.17 0.20 0.20 0.18 0.15 0.13 0.13 0.12 0.13 0.17 0.18 0.18 0.20 0.18 0.21 0.21 0.22 0.49 0.54 0.55 0.60 0.64 0.72 0.74 0.71 0.68 0.72 0.79 0.84 0.83 0.95 1.08 1.14 1.18 1.26 1.38 1.44 1.45 1.40 1.43 1.46 1.58 1.54 1.56 1.56 1.55 1.55 1.58 1.58 1.60 1.58 1.55 1.50 1.54 1.54 1.48 1.43 1.41 1.41 1.36 1.35 1.36 1.33 1.31 1.37 1.37 1.40 1.41 1.43 1.42 1.43 1.41 1.38 1.37 1.34 1.31 1.26 1.28
0.25 0.18 0.16 0.16 0.18 0.17 0.17 0.18 0.20 0.20 0.20 0.17 0.14 0.13 0.13 0.13 0.13 0.16 0.17 0.20 0.23 0.22 0.25 0.24 0.34 0.49 0.57 0.58 0.62 0.67 0.68 0.70 0.69 0.67 0.71 0.77 0.79 0.86 0.85 0.98 1.04 1.11 1.21 1.31 1.28 1.40 1.38 1.42 1.42 1.51 1.51 1.46 1.46 1.51 1.53 1.50 1.52 1.57 1.55 1.50 1.48 1.51 1.51 1.50 1.48 1.46 1.43 1.42 1.39 1.35 1.33 1.35 1.35 1.34 1.30 1.32 1.36 1.35 1.38 1.35 1.34 1.32 1.30 1.28 1.27 1.29
0.18 0.16 0.18 0.18 0.19 0.18 0.18 0.18 0.21 0.20 0.17 0.16 0.14 0.14 0.13 0.13 0.19 0.22 0.21 0.21 0.19 0.24 0.27 0.31 0.39 0.45 0.61 0.60 0.61 0.60 0.67 0.69 0.75 0.79 0.78 0.71 0.75 0.80 0.86 0.85 0.85 0.95 1.03 1.22 1.24 1.29 1.34 1.41 1.46 1.38 1.39 1.50 1.50 1.49 1.47 1.52 1.50 1.49 1.48 1.47 1.46 1.45 1.46 1.47 1.48 1.46 1.41 1.44 1.44 1.40 1.37 1.33 1.29 1.34 1.34 1.34 1.31 1.31 1.28 1.27 1.30 1.31 1.30 1.28 1.29 1.28
0.15 0.17 0.20 0.20 0.19 0.17 0.17 0.19 0.19 0.18 0.17 0.16 0.15 0.14 0.12 0.14 0.15 0.19 0.22 0.20 0.20 0.23 0.30 0.31 0.35 0.45 0.60 0.61 0.63 0.67 0.74 0.78 0.86 0.86 0.83 0.80 0.74 0.79 0.84 0.84 0.85 0.90 0.95 1.06 1.23 1.27 1.38 1.42 1.43 1.40 1.41 1.41 1.43 1.42 1.43 1.44 1.43 1.44 1.43 1.43 1.42 1.41 1.44 1.45 1.47 1.44 1.45 1.46 1.42 1.39 1.36 1.34 1.29 1.24 1.28 1.29 1.28 1.25 1.22 1.22 1.25 1.25 1.24 1.24 1.22 1.23
0.15 0.18 0.22 0.20 0.18 0.17 0.16 0.16 0.16 0.16 0.15 0.16 0.16 0.16 0.15 0.15 0.15 0.17 0.23 0.21 0.24 0.32 0.34 0.35 0.36 0.36 0.49 0.44 0.52 0.65 0.77 0.74 0.78 0.82 0.81 0.82 0.86 0.90 0.92 0.92 0.91 0.94 0.97 0.99 1.13 1.27 1.30 1.31 1.35 1.35 1.36 1.39 1.37 1.38 1.40 1.39 1.40 1.39 1.37 1.38 1.39 1.38 1.39 1.40 1.39 1.40 1.40 1.35 1.29 1.30 1.30 1.29 1.24 1.24 1.21 1.17 1.14 1.19 1.19 1.18 1.16 1.16 1.22 1.22 1.21 1.22
0.18 0.20 0.21 0.19 0.17 0.16 0.15 0.15 0.15 0.16 0.15 0.16 0.17 0.17 0.18 0.17 0.16 0.27 0.33 0.22 0.18 0.22 0.29 0.25 0.21 0.27 0.42 0.44 0.49 0.57 0.65 0.64 0.71 0.70 0.71 0.75 0.81 0.90 0.90 0.92 0.99 1.04 1.06 1.01 1.01 1.11 1.21 1.26 1.36 1.37 1.35 1.32 1.34 1.36 1.39 1.39 1.40 1.39 1.36 1.36 1.37 1.35 1.32 1.32 1.35 1.36 1.33 1.29 1.25 1.20 1.13 1.06 1.06 1.02 1.04 1.02 1.03 1.07 1.07 1.08 1.14 1.16 1.18 1.18 1.18 1.18
0.20 0.24 0.20 0.17 0.16 0.15 0.15 0.15 0.16 0.17 0.16 0.16 0.15 0.19 0.18 0.18 0.18 0.21 0.25 0.18 0.16 0.18 0.26 0.30 0.19 0.25 0.41 0.42 0.46 0.54 0.55 0.60 0.65 0.66 0.71 0.76 0.79 0.85 0.85 0.91 0.97 1.02 1.07 1.06 1.05 1.11 1.13 1.26 1.33 1.33 1.32 1.33 1.31 1.34 1.37 1.38 1.38 1.37 1.35 1.34 1.32 1.28 1.28 1.28 1.26 1.26 1.23 1.19 1.18 1.14 1.10 1.08 1.05 1.01 1.05 1.10 1.12 1.11 1.12 1.14 1.13 1.14 1.15 1.16 1.14 1.15
0.24 0.23 0.19 0.17 0.16 0.15 0.15 0.14 0.16 0.17 0.16 0.16 0.20 0.17 0.17 0.16 0.16 0.16 0.17 0.16 0.19 0.29 0.35 0.25 0.20 0.26 0.29 0.42 0.50 0.53 0.54 0.56 0.59 0.62 0.67 0.75 0.78 0.83 0.85 0.91 0.97 1.05 1.06 1.03 1.04 1.11 1.21 1.29 1.32 1.27 1.31 1.31 1.30 1.32 1.34 1.33 1.34 1.31 1.30 1.28 1.25 1.24 1.22 1.21 1.20 1.20 1.20 1.13 1.11 1.07 1.05 1.05 1.04 1.02 1.02 1.07 1.09 1.12 1.12 1.11 1.11 1.11 1.12 1.14 1.14 1.12
0.26 0.21 0.17 0.15 0.15 0.15 0.14 0.15 0.17 0.17 0.16 0.18 0.21 0.19 0.17 0.17 0.17 0.16 0.16 0.16 0.19 0.18 0.21 0.25 0.22 0.16 0.26 0.45 0.52 0.54 0.48 0.52 0.52 0.58 0.62 0.68 0.76 0.83 0.85 0.91 0.97 1.05 1.06 1.06 1.09 1.14 1.19 1.25 1.27 1.28 1.28 1.31 1.30 1.32 1.30 1.28 1.28 1.27 1.26 1.25 1.24 1.21 1.18 1.18 1.18 1.16 1.16 1.13 1.10 1.06 1.03 0.99 1.02 1.04 1.03 1.06 1.09 1.08 1.10 1.08 1.10 1.10 1.11 1.12 1.11 1.09
0.26 0.22 0.18 0.17 0.16 0.14 0.16 0.17 0.18 0.17 0.15 0.19 0.21 0.20 0.19 0.19 0.18 0.17 0.16 0.17 0.19 0.15 0.13 0.20 0.21 0.13 0.16 0.43 0.45 0.52 0.45 0.45 0.47 0.53 0.61 0.65 0.72 0.81 0.86 0.92 0.95 1.00 1.03 1.08 1.11 1.17 1.20 1.25 1.29 1.31 1.32 1.29 1.29 1.31 1.29 1.26 1.24 1.22 1.21 1.18 1.16 1.13 1.15 1.16 1.16 1.16 1.14 1.12 1.10 1.05 1.03 1.00 0.99 1.03 1.04 1.05 1.04 1.06 1.09 1.05 1.06 1.08 1.07 1.07 1.04 1.03
0.28 0.26 0.22 0.18 0.16 0.17 0.17 0.18 0.18 0.17 0.17 0.21 0.19 0.18 0.19 0.18 0.18 0.17 0.17 0.17 0.17 0.13 0.13 0.18 0.21 0.15 0.14 0.33 0.39 0.38 0.37 0.45 0.47 0.53 0.62 0.68 0.73 0.83 0.89 0.92 0.92 0.95 0.99 1.05 1.09 1.15 1.21 1.27 1.27 1.31 1.29 1.25 1.26 1.27 1.25 1.22 1.20 1.18 1.14 1.12 1.08 1.09 1.12 1.13 1.13 1.12 1.10 1.10 1.08 1.05 1.04 1.02 1.00 1.02 1.03 1.02 1.01 1.03 1.04 1.02 1.02 1.02 1.00 0.99 0.96 0.97
0.29 0.26 0.22 0.20 0.21 0.20 0.20 0.18 0.19 0.18 0.18 0.19 0.16 0.16 0.18 0.17 0.19 0.18 0.17 0.18 0.13 0.11 0.14 0.18 0.21 0.18 0.12 0.29 0.34 0.42 0.46 0.44 0.45 0.44 0.51 0.60 0.68 0.79 0.89 0.92 0.92 0.92 0.96 1.01 1.05 1.10 1.18 1.23 1.26 1.26 1.25 1.21 1.19 1.21 1.19 1.17 1.15 1.12 1.11 1.07 1.04 1.05 1.07 1.08 1.09 1.08 1.07 1.07 1.06 1.06 1.04 1.02 1.02 1.01 0.99 0.97 0.96 0.99 0.98 0.97 0.95 0.95 0.93 0.90 0.92 0.91
0.24 0.24 0.25 0.24 0.26 0.22 0.19 0.17 0.16 0.17 0.19 0.17 0.16 0.16 0.15 0.14 0.14 0.12 0.14 0.12 0.11 0.11 0.15 0.17 0.21 0.18 0.14 0.23 0.38 0.37 0.43 0.44 0.50 0.50 0.50 0.56 0.69 0.81 0.89 0.91 0.95 0.94 0.97 0.94 0.95 1.03 1.14 1.20 1.23 1.19 1.20 1.18 1.13 1.14 1.16 1.13 1.11 1.08 1.04 1.03 1.00 0.99 1.02 1.03 1.04 1.03 1.04 1.02 1.02 1.02 1.02 1.01 1.01 0.99 0.98 0.96 0.95 0.95 0.93 0.91 0.87 0.85 0.83 0.84 0.84 0.85
0.23 0.26 0.26 0.26 0.24 0.23 0.20 0.14 0.15 0.15 0.17 0.16 0.15 0.14 0.14 0.13 0.12 0.10 0.12 0.13 0.13 0.17 0.21 0.19 0.20 0.15 0.20 0.29 0.39 0.36 0.44 0.51 0.53 0.57 0.62 0.70 0.76 0.81 0.86 0.90 0.95 0.98 0.98 0.99 1.02 1.06 1.10 1.11 1.14 1.21 1.19 1.14 1.13 1.12 1.11 1.09 1.05 1.03 1.00 1.02 1.01 1.01 1.03 1.03 1.01 1.00 0.99 0.99 1.00 1.01 1.01 1.01 1.00 0.97 0.96 0.94 0.91 0.91 0.89 0.86 0.83 0.82 0.82 0.82 0.82 0.82
0.18 0.19 0.23 0.24 0.20 0.24 0.21 0.17 0.16 0.15 0.16 0.15 0.16 0.16 0.15 0.15 0.14 0.11 0.12 0.11 0.12 0.16 0.17 0.24 0.17 0.13 0.19 0.28 0.41 0.49 0.51 0.53 0.59 0.64 0.70 0.81 0.83 0.85 0.88 0.95 0.97 0.96 0.99 1.07 1.06 1.08 1.07 1.08 1.13 1.14 1.17 1.11 1.10 1.11 1.11 1.10 1.08 1.07 1.07 1.12 1.12 1.11 1.12 1.10 1.07 1.04 0.99 0.98 0.99 1.00 1.01 1.00 0.99 0.96 0.94 0.91 0.90 0.87 0.84 0.83 0.81 0.81 0.82 0.81 0.82 0.82
0.21 0.19 0.23 0.27 0.27 0.25 0.21 0.21 0.20 0.17 0.16 0.17 0.17 0.17 0.15 0.15 0.20 0.14 0.17 0.16 0.14 0.20 0.18 0.17 0.14 0.26 0.31 0.51 0.45 0.45 0.50 0.51 0.58 0.62 0.70 0.71 0.78 0.80 0.82 0.87 0.91 0.93 0.99 1.04 1.04 1.07 1.12 1.13 1.13 1.15 1.15 1.11 1.13 1.15 1.15 1.14 1.14 1.14 1.15 1.16 1.14 1.11 1.10 1.10 1.08 1.06 1.05 1.03 1.02 1.01 0.99 0.98 0.97 0.95 0.92 0.89 0.87 0.85 0.84 0.82 0.81 0.80 0.81 0.81 0.82 0.83
0.20 0.18 0.26 0.25 0.29 0.26 0.24 0.24 0.21 0.19 0.13 0.15 0.16 0.14 0.15 0.19 0.20 0.18 0.17 0.19 0.19 0.19 0.15 0.21 0.22 0.29 0.48 0.47 0.44 0.44 0.42 0.48 0.56 0.61 0.64 0.67 0.72 0.76 0.78 0.86 0.91 0.95 1.00 1.02 1.01 1.05 1.10 1.16 1.13 1.15 1.14 1.17 1.18 1.16 1.15 1.14 1.15 1.14 1.11 1.08 1.06 1.06 1.07 1.07 1.05 1.02 1.01 0.99 0.97 0.96 0.96 0.96 0.94 0.92 0.88 0.86 0.84 0.83 0.83 0.82 0.81 0.80 0.80 0.81 0.81 0.79
0.18 0.20 0.25 0.23 0.21 0.25 0.26 0.26 0.24 0.21 0.19 0.18 0.15 0.17 0.20 0.24 0.23 0.19 0.13 0.14 0.13 0.12 0.18 0.21 0.17 0.23 0.20 0.23 0.43 0.39 0.41 0.47 0.53 0.55 0.58 0.64 0.70 0.71 0.76 0.84 0.91 0.95 1.02 1.06 1.09 1.12 1.12 1.14 1.11 1.11 1.13 1.17 1.17 1.17 1.14 1.13 1.14 1.11 1.07 1.03 0.99 0.99 0.98 1.00 0.99 0.96 0.95 0.91 0.89 0.88 0.88 0.90 0.91 0.91 0.89 0.87 0.84 0.83 0.81 0.80 0.80 0.80 0.78 0.77 0.77 0.77
0.24 0.19 0.22 0.23 0.23 0.24 0.27 0.26 0.22 0.22 0.21 0.20 0.16 0.20 0.17 0.15 0.14 0.18 0.15 0.12 0.10 0.10 0.15 0.20 0.21 0.24 0.22 0.26 0.35 0.36 0.38 0.42 0.47 0.52 0.56 0.59 0.65 0.69 0.75 0.84 0.92 0.98 1.02 1.04 1.04 1.08 1.12 1.14 1.09 1.10 1.12 1.14 1.17 1.16 1.12 1.12 1.12 1.10 1.07 1.03 1.00 0.96 0.95 0.94 0.94 0.93 0.91 0.90 0.88 0.87 0.87 0.88 0.88 0.89 0.88 0.87 0.85 0.82 0.79 0.78 0.78 0.77 0.77 0.76 0.75 0.74
0.25 0.19 0.19 0.23 0.22 0.24 0.25 0.23 0.17 0.18 0.21 0.23 0.22 0.17 0.18 0.17 0.15 0.14 0.14 0.16 0.15 0.11 0.13 0.17 0.21 0.19 0.26 0.35 0.34 0.33 0.37 0.39 0.44 0.49 0.52 0.59 0.66 0.71 0.76 0.82 0.88 0.94 0.99 1.02 1.05 1.07 1.05 1.11 1.15 1.11 1.10 1.09 1.09 1.11 1.11 1.10 1.10 1.08 1.07 1.03 1.00 1.00 0.99 0.96 0.95 0.95 0.93 0.93 0.93 0.92 0.91 0.91 0.90 0.89 0.87 0.85 0.83 0.79 0.77 0.76 0.76 0.75 0.74 0.73 0.74 0.73
0.22 0.25 0.17 0.21 0.24 0.24 0.19 0.21 0.19 0.19 0.17 0.17 0.17 0.16 0.17 0.17 0.22 0.19 0.19 0.15 0.15 0.13 0.13 0.17 0.17 0.19 0.27 0.38 0.34 0.34 0.38 0.42 0.42 0.44 0.51 0.59 0.67 0.72 0.77 0.80 0.86 0.92 0.96 1.00 1.02 1.01 1.04 1.08 1.08 1.11 1.11 1.07 1.07 1.10 1.12 1.11 1.09 1.08 1.06 1.01 1.00 0.97 0.95 0.93 0.92 0.92 0.91 0.91 0.91 0.90 0.89 0.89 0.89 0.87 0.86 0.83 0.80 0.77 0.75 0.74 0.74 0.74 0.73 0.73 0.70 0.69
0.21 0.21 0.19 0.20 0.20 0.20 0.20 0.23 0.23 0.22 0.20 0.17 0.17 0.17 0.17 0.16 0.15 0.14 0.15 0.19 0.17 0.16 0.15 0.15 0.15 0.24 0.38 0.44 0.33 0.34 0.41 0.44 0.48 0.51 0.54 0.60 0.66 0.70 0.75 0.80 0.84 0.88 0.94 0.97 0.99 1.00 1.03 1.06 1.09 1.07 1.08 1.08 1.06 1.06 1.08 1.08 1.06 1.04 1.00 0.98 0.96 0.95 0.92 0.90 0.89 0.88 0.87 0.87 0.88 0.86 0.86 0.85 0.85 0.84 0.82 0.79 0.77 0.74 0.72 0.72 0.72 0.72 0.70 0.67 0.67 0.66
0.25 0.22 0.22 0.18 0.19 0.20 0.22 0.25 0.25 0.25 0.23 0.20 0.19 0.17 0.18 0.18 0.17 0.14 0.13 0.17 0.18 0.17 0.26 0.24 0.16 0.26 0.44 0.49 0.49 0.46 0.48 0.52 0.55 0.57 0.58 0.62 0.66 0.71 0.76 0.81 0.86 0.90 0.92 0.95 0.97 1.00 1.03 1.05 1.07 1.05 1.03 1.03 1.03 1.04 1.04 1.04 1.02 1.01 0.98 0.95 0.93 0.90 0.88 0.87 0.86 0.86 0.85 0.83 0.82 0.81 0.81 0.81 0.80 0.80 0.78 0.76 0.75 0.72 0.71 0.70 0.69 0.69 0.66 0.64 0.63 0.62
0.27 0.20 0.20 0.20 0.21 0.22 0.26 0.28 0.26 0.27 0.25 0.21 0.20 0.20 0.19 0.17 0.18 0.16 0.15 0.18 0.17 0.17 0.17 0.19 0.15 0.26 0.39 0.49 0.50 0.57 0.58 0.56 0.61 0.61 0.60 0.61 0.65 0.70 0.75 0.80 0.84 0.87 0.92 0.96 0.99 1.00 1.03 1.04 1.04 1.03 0.99 0.99 1.00 1.01 1.01 1.01 1.00 1.00 0.96 0.93 0.92 0.89 0.87 0.85 0.84 0.83 0.82 0.80 0.79 0.79 0.79 0.77 0.77 0.76 0.75 0.73 0.72 0.70 0.69 0.67 0.65 0.64 0.62 0.61 0.60 0.59
0.20 0.22 0.21 0.17 0.17 0.18 0.21 0.22 0.23 0.24 0.25 0.22 0.20 0.20 0.20 0.20 0.20 0.19 0.19 0.23 0.19 0.17 0.16 0.14 0.13 0.21 0.37 0.44 0.50 0.55 0.55 0.55 0.58 0.63 0.64 0.59 0.63 0.68 0.73 0.78 0.83 0.87 0.89 0.91 0.93 0.96 0.98 0.99 0.99 0.99 0.99 0.98 0.99 1.00 1.00 0.99 0.98 0.97 0.93 0.91 0.89 0.88 0.87 0.85 0.84 0.82 0.80 0.79 0.78 0.77 0.76 0.75 0.75 0.73 0.71 0.69 0.68 0.66 0.65 0.63 0.61 0.60 0.59 0.57 0.56 0.55
0.22 0.21 0.20 0.16 0.14 0.13 0.12 0.13 0.14 0.17 0.19 0.22 0.23 0.22 0.21 0.20 0.20 0.19 0.18 0.20 0.15 0.17 0.18 0.15 0.13 0.35 0.39 0.43 0.43 0.51 0.55 0.57 0.61 0.64 0.65 0.66 0.65 0.68 0.73 0.77 0.81 0.83 0.85 0.88 0.91 0.93 0.94 0.96 0.98 0.98 0.98 0.98 0.98 0.97 0.97 0.97 0.97 0.94 0.91 0.89 0.88 0.85 0.84 0.83 0.83 0.81 0.79 0.78 0.76 0.75 0.74 0.73 0.72 0.69 0.68 0.67 0.65 0.64 0.62 0.61 0.59 0.57 0.55 0.54 0.52 0.52
0.23 0.23 0.23 0.21 0.17 0.16 0.17 0.19 0.22 0.22 0.21 0.19 0.21 0.22 0.21 0.21 0.21 0.21 0.21 0.16 0.14 0.16 0.16 0.18 0.17 0.30 0.33 0.35 0.39 0.44 0.51 0.52 0.55 0.58 0.59 0.62 0.68 0.73 0.75 0.78 0.80 0.81 0.84 0.87 0.90 0.93 0.94 0.94 0.95 0.96 0.96 0.97 0.96 0.96 0.96 0.95 0.93 0.91 0.88 0.86 0.85 0.84 0.82 0.82 0.80 0.79 0.78 0.77 0.75 0.73 0.72 0.70 0.69 0.68 0.66 0.64 0.62 0.61 0.59 0.57 0.55 0.53 0.51 0.51 0.50 0.50
0.24 0.22 0.22 0.26 0.28 0.25 0.24 0.23 0.26 0.23 0.20 0.20 0.21 0.21 0.23 0.23 0.21 0.21 0.18 0.15 0.18 0.18 0.18 0.22 0.19 0.23 0.26 0.33 0.39 0.44 0.50 0.54 0.56 0.58 0.61 0.64 0.67 0.70 0.73 0.76 0.78 0.81 0.85 0.89 0.90 0.91 0.91 0.92 0.96 0.96 0.96 0.95 0.95 0.96 0.95 0.94 0.91 0.87 0.85 0.82 0.83 0.83 0.81 0.80 0.79 0.77 0.76 0.75 0.73 0.71 0.70 0.68 0.68 0.65 0.63 0.61 0.59 0.57 0.55 0.53 0.52 0.51 0.51 0.50 0.49 0.48
0.21 0.19 0.23 0.25 0.27 0.29 0.30 0.27 0.26 0.23 0.22 0.21 0.21 0.22 0.22 0.22 0.21 0.20 0.21 0.20 0.23 0.20 0.17 0.26 0.24 0.21 0.26 0.29 0.36 0.39 0.42 0.45 0.49 0.54 0.60 0.66 0.70 0.72 0.72 0.73 0.75 0.77 0.82 0.86 0.89 0.90 0.89 0.91 0.94 0.95 0.96 0.95 0.94 0.91 0.89 0.88 0.87 0.86 0.83 0.82 0.82 0.81 0.79 0.79 0.77 0.75 0.74 0.73 0.71 0.69 0.68 0.66 0.64 0.62 0.60 0.58 0.55 0.53 0.51 0.50 0.50 0.50 0.49 0.49 0.48 0.48
0.22 0.20 0.22 0.21 0.25 0.27 0.28 0.28 0.27 0.23 0.23 0.23 0.21 0.22 0.23 0.23 0.22 0.23 0.22 0.23 0.28 0.24 0.21 0.31 0.29 0.22 0.25 0.30 0.33 0.42 0.50 0.53 0.56 0.61 0.65 0.64 0.65 0.68 0.70 0.72 0.73 0.77 0.81 0.83 0.87 0.91 0.94 0.95 0.95 0.95 0.94 0.92 0.90 0.88 0.86 0.86 0.84 0.82 0.80 0.79 0.79 0.78 0.78 0.77 0.75 0.73 0.72 0.70 0.68 0.66 0.63 0.61 0.60 0.59 0.57 0.54 0.52 0.51 0.50 0.49 0.49 0.48 0.48 0.47 0.46 0.45
0.24 0.23 0.23 0.24 0.23 0.24 0.27 0.27 0.29 0.27 0.25 0.22 0.23 0.23 0.23 0.23 0.23 0.23 0.24 0.24 0.26 0.26 0.28 0.28 0.27 0.28 0.42 0.45 0.43 0.50 0.51 0.55 0.54 0.52 0.54 0.60 0.63 0.65 0.68 0.71 0.75 0.80 0.84 0.87 0.90 0.91 0.90 0.92 0.92 0.91 0.90 0.89 0.87 0.86 0.85 0.83 0.81 0.80 0.79 0.77 0.76 0.75 0.76 0.75 0.73 0.72 0.70 0.68 0.65 0.62 0.60 0.59 0.57 0.55 0.52 0.52 0.51 0.51 0.49 0.48 0.48 0.47 0.46 0.44 0.43 0.42
0.23 0.27 0.23 0.24 0.21 0.23 0.27 0.27 0.28 0.31 0.29 0.24 0.22 0.24 0.25 0.25 0.22 0.23 0.22 0.25 0.27 0.25 0.26 0.25 0.24 0.24 0.43 0.44 0.45 0.46 0.47 0.46 0.44 0.47 0.52 0.55 0.60 0.63 0.63 0.67 0.72 0.77 0.82 0.85 0.88 0.89 0.88 0.89 0.89 0.89 0.87 0.85 0.85 0.84 0.82 0.80 0.78 0.78 0.76 0.75 0.74 0.74 0.74 0.73 0.71 0.69 0.67 0.64 0.61 0.59 0.58 0.56 0.54 0.52 0.51 0.52 0.51 0.49 0.49 0.48 0.46 0.44 0.42 0.41 0.40 0.39
0.19 0.25 0.20 0.21 0.18 0.20 0.30 0.29 0.31 0.32 0.30 0.24 0.23 0.26 0.24 0.24 0.24 0.29 0.31 0.33 0.29 0.27 0.24 0.22 0.22 0.28 0.40 0.42 0.37 0.40 0.41 0.44 0.47 0.48 0.52 0.57 0.61 0.63 0.63 0.64 0.70 0.76 0.80 0.84 0.86 0.87 0.89 0.89 0.88 0.87 0.85 0.84 0.82 0.80 0.80 0.79 0.77 0.75 0.74 0.73 0.73 0.72 0.71 0.70 0.69 0.66 0.63 0.61 0.59 0.57 0.56 0.57 0.56 0.56 0.55 0.53 0.51 0.49 0.47 0.44 0.41 0.39 0.38 0.37 0.37 0.36
0.20 0.25 0.21 0.22 0.17 0.19 0.28 0.29 0.31 0.28 0.20 0.20 0.36 0.37 0.31 0.27 0.27 0.25 0.24 0.25 0.28 0.28 0.28 0.31 0.33 0.37 0.43 0.40 0.35 0.37 0.38 0.39 0.43 0.51 0.58 0.58 0.59 0.63 0.66 0.69 0.73 0.76 0.79 0.83 0.87 0.88 0.88 0.87 0.85 0.85 0.85 0.83 0.81 0.81 0.81 0.80 0.77 0.75 0.73 0.71 0.71 0.70 0.70 0.69 0.67 0.65 0.63 0.63 0.62 0.61 0.60 0.59 0.58 0.53 0.51 0.49 0.46 0.43 0.40 0.39 0.37 0.37 0.36 0.36 0.35 0.33
0.22 0.23 0.23 0.24 0.18 0.20 0.27 0.27 0.24 0.20 0.22 0.39 0.43 0.42 0.36 0.35 0.32 0.28 0.32 0.32 0.31 0.34 0.34 0.32 0.35 0.38 0.38 0.38 0.38 0.41 0.46 0.55 0.61 0.59 0.61 0.64 0.65 0.64 0.63 0.68 0.74 0.79 0.80 0.80 0.81 0.83 0.84 0.84 0.85 0.84 0.82 0.80 0.80 0.81 0.79 0.77 0.76 0.72 0.69 0.69 0.68 0.68 0.67 0.65 0.63 0.61 0.60 0.58 0.57 0.54 0.52 0.49 0.48 0.46 0.44 0.41 0.39 0.37 0.36 0.36 0.35 0.33 0.32 0.31 0.31 0.30
0.22 0.21 0.26 0.22 0.20 0.24 0.25 0.21 0.16 0.18 0.38 0.41 0.44 0.42 0.42 0.37 0.35 0.31 0.28 0.31 0.34 0.34 0.33 0.31 0.36 0.40 0.43 0.45 0.48 0.52 0.53 0.57 0.61 0.63 0.63 0.66 0.67 0.65 0.65 0.69 0.75 0.79 0.80 0.82 0.83 0.85 0.85 0.85 0.83 0.81 0.80 0.80 0.80 0.79 0.76 0.75 0.74 0.69 0.66 0.68 0.68 0.67 0.65 0.62 0.58 0.55 0.54 0.51 0.48 0.46 0.44 0.43 0.41 0.39 0.37 0.36 0.35 0.34 0.33 0.32 0.32 0.31 0.30 0.29 0.29 0.30
0.24 0.22 0.24 0.21 0.27 0.21 0.21 0.21 0.20 0.33 0.31 0.34 0.33 0.36 0.37 0.31 0.29 0.25 0.20 0.23 0.30 0.33 0.33 0.34 0.39 0.42 0.44 0.47 0.50 0.52 0.56 0.57 0.53 0.56 0.65 0.65 0.66 0.69 0.70 0.72 0.77 0.79 0.84 0.87 0.87 0.87 0.88 0.86 0.83 0.83 0.81 0.78 0.78 0.76 0.75 0.75 0.71 0.68 0.66 0.67 0.67 0.64 0.60 0.57 0.54 0.53 0.50 0.47 0.44 0.42 0.41 0.39 0.37 0.36 0.35 0.35 0.33 0.32 0.30 0.29 0.29 0.29 0.29 0.27 0.27 0.27
0.27 0.22 0.22 0.21 0.20 0.24 0.21 0.20 0.21 0.20 0.18 0.24 0.31 0.42 0.46 0.48 0.45 0.42 0.32 0.31 0.36 0.35 0.37 0.37 0.38 0.41 0.43 0.46 0.48 0.51 0.55 0.46 0.40 0.45 0.58 0.64 0.69 0.70 0.75 0.78 0.83 0.87 0.87 0.87 0.87 0.87 0.85 0.84 0.84 0.82 0.79 0.77 0.78 0.77 0.75 0.73 0.70 0.67 0.65 0.64 0.62 0.59 0.56 0.54 0.52 0.49 0.46 0.43 0.41 0.39 0.38 0.37 0.36 0.35 0.34 0.33 0.30 0.29 0.29 0.29 0.29 0.28 0.28 0.25 0.24 0.25
0.30 0.28 0.24 0.19 0.23 0.19 0.21 0.20 0.20 0.18 0.20 0.30 0.37 0.39 0.45 0.48 0.47 0.50 0.31 0.23 0.37 0.36 0.37 0.39 0.39 0.42 0.42 0.42 0.46 0.50 0.44 0.33 0.32 0.40 0.55 0.62 0.67 0.72 0.73 0.76 0.82 0.83 0.84 0.84 0.84 0.83 0.83 0.83 0.82 0.80 0.80 0.79 0.77 0.75 0.74 0.71 0.68 0.65 0.62 0.60 0.59 0.57 0.54 0.52 0.49 0.46 0.42 0.40 0.39 0.39 0.38 0.37 0.35 0.33 0.32 0.31 0.30 0.30 0.28 0.28 0.28 0.28 0.28 0.26 0.25 0.25
0.24 0.24 0.27 0.20 0.18 0.20 0.18 0.19 0.20 0.22 0.21 0.29 0.36 0.41 0.46 0.50 0.46 0.42 0.22 0.22 0.41 0.40 0.40 0.40 0.40 0.42 0.43 0.46 0.47 0.46 0.37 0.29 0.31 0.41 0.55 0.63 0.69 0.73 0.73 0.74 0.77 0.80 0.83 0.86 0.86 0.87 0.85 0.83 0.80 0.78 0.78 0.76 0.74 0.74 0.73 0.69 0.64 0.61 0.59 0.58 0.57 0.54 0.52 0.49 0.46 0.43 0.41 0.40 0.40 0.39 0.38 0.36 0.34 0.33 0.31 0.30 0.30 0.30 0.29 0.29 0.29 0.28 0.27 0.26 0.25 0.24
0.21 0.21 0.23 0.20 0.19 0.21 0.18 0.18 0.20 0.23 0.31 0.37 0.37 0.42 0.46 0.49 0.43 0.25 0.19 0.28 0.44 0.46 0.46 0.45 0.44 0.45 0.46 0.46 0.47 0.39 0.44 0.49 0.53 0.59 0.61 0.67 0.69 0.71 0.75 0.80 0.82 0.83 0.80 0.80 0.81 0.83 0.81 0.81 0.79 0.77 0.76 0.74 0.73 0.71 0.69 0.65 0.61 0.59 0.58 0.57 0.54 0.52 0.50 0.47 0.44 0.41 0.40 0.40 0.39 0.37 0.36 0.35 0.34 0.32 0.32 0.31 0.30 0.29 0.29 0.29 0.29 0.29 0.28 0.27 0.26 0.25
0.23 0.23 0.21 0.21 0.20 0.19 0.20 0.17 0.17 0.21 0.39 0.38 0.41 0.44 0.47 0.36 0.22 0.20 0.42 0.44 0.48 0.48 0.51 0.53 0.52 0.54 0.52 0.49 0.49 0.52 0.57 0.58 0.62 0.62 0.62 0.66 0.68 0.68 0.73 0.77 0.81 0.81 0.82 0.84 0.84 0.82 0.79 0.78 0.77 0.76 0.75 0.74 0.72 0.69 0.65 0.63 0.59 0.58 0.57 0.55 0.53 0.52 0.50 0.46 0.43 0.41 0.39 0.38 0.37 0.36 0.35 0.34 0.34 0.34 0.34 0.34 0.32 0.30 0.29 0.29 0.29 0.29 0.29 0.28 0.26 0.25
0.25 0.20 0.20 0.19 0.21 0.22 0.22 0.18 0.18 0.16 0.28 0.40 0.42 0.40 0.44 0.28 0.30 0.43 0.44 0.45 0.46 0.48 0.49 0.53 0.56 0.59 0.58 0.56 0.58 0.58 0.57 0.59 0.60 0.63 0.64 0.67 0.65 0.67 0.72 0.75 0.75 0.74 0.75 0.77 0.77 0.80 0.79 0.76 0.75 0.74 0.73 0.71 0.68 0.66 0.63 0.61 0.59 0.57 0.57 0.54 0.53 0.51 0.48 0.44 0.41 0.39 0.38 0.37 0.35 0.34 0.33 0.33 0.33 0.33 0.34 0.33 0.33 0.31 0.29 0.29 0.28 0.28 0.29 0.28 0.27 0.25
0.40 0.23 0.21 0.21 0.22 0.19 0.20 0.19 0.18 0.25 0.38 0.41 0.36 0.29 0.37 0.40 0.46 0.49 0.47 0.43 0.48 0.50 0.51 0.52 0.56 0.59 0.60 0.58 0.57 0.57 0.59 0.59 0.62 0.63 0.63 0.63 0.64 0.70 0.77 0.77 0.75 0.76 0.79 0.79 0.79 0.78 0.79 0.76 0.75 0.74 0.72 0.70 0.67 0.64 0.63 0.61 0.59 0.57 0.55 0.53 0.52 0.50 0.45 0.41 0.39 0.38 0.36 0.35 0.34 0.33 0.32 0.32 0.33 0.33 0.34 0.34 0.33 0.31 0.30 0.30 0.28 0.28 0.27 0.27 0.26 0.25
0.41 0.33 0.37 0.27 0.34 0.24 0.21 0.26 0.38 0.38 0.42 0.47 0.45 0.41 0.45 0.49 0.49 0.50 0.52 0.49 0.48 0.51 0.55 0.54 0.55 0.60 0.61 0.60 0.60 0.60 0.58 0.60 0.60 0.63 0.61 0.62 0.65 0.70 0.73 0.74 0.76 0.76 0.76 0.76 0.76 0.78 0.78 0.76 0.74 0.73 0.71 0.69 0.66 0.66 0.64 0.62 0.59 0.57 0.54 0.52 0.51 0.45 0.41 0.39 0.37 0.36 0.34 0.33 0.33 0.32 0.32 0.33 0.33 0.33 0.33 0.34 0.34 0.31 0.29 0.29 0.29 0.27 0.28 0.27 0.26 0.25
0.49 0.45 0.47 0.38 0.37 0.36 0.37 0.41 0.46 0.40 0.38 0.42 0.46 0.47 0.47 0.49 0.51 0.52 0.53 0.51 0.52 0.54 0.57 0.55 0.58 0.58 0.60 0.63 0.60 0.62 0.61 0.62 0.62 0.63 0.65 0.66 0.67 0.71 0.75 0.77 0.78 0.78 0.78 0.78 0.77 0.78 0.77 0.77 0.75 0.72 0.69 0.67 0.67 0.66 0.65 0.63 0.61 0.55 0.53 0.51 0.46 0.41 0.39 0.37 0.36 0.34 0.33 0.32 0.32 0.31 0.31 0.31 0.31 0.32 0.31 0.32 0.30 0.29 0.29 0.29 0.28 0.27 0.27 0.28 0.27 0.26
0.49 0.48 0.43 0.37 0.43 0.31 0.26 0.35 0.37 0.41 0.42 0.44 0.46 0.51 0.52 0.52 0.53 0.53 0.54 0.54 0.55 0.57 0.57 0.60 0.58 0.59 0.60 0.62 0.62 0.62 0.63 0.65 0.65 0.66 0.67 0.68 0.69 0.71 0.74 0.75 0.76 0.76 0.75 0.75 0.77 0.77 0.76 0.75 0.73 0.70 0.68 0.66 0.67 0.67 0.65 0.63 0.61 0.56 0.50 0.46 0.42 0.39 0.37 0.36 0.34 0.33 0.32 0.31 0.31 0.32 0.32 0.31 0.31 0.29 0.30 0.31 0.30 0.29 0.29 0.30 0.30 0.29 0.27 0.27 0.27 0.27
0.41 0.52 0.44 0.44 0.42 0.34 0.41 0.41 0.42 0.44 0.48 0.50 0.49 0.48 0.49 0.50 0.52 0.53 0.56 0.58 0.58 0.60 0.60 0.60 0.61 0.60 0.62 0.59 0.62 0.63 0.65 0.68 0.67 0.66 0.67 0.68 0.69 0.72 0.74 0.74 0.74 0.75 0.77 0.79 0.78 0.78 0.76 0.75 0.73 0.69 0.67 0.67 0.68 0.67 0.64 0.61 0.58 0.52 0.48 0.44 0.41 0.38 0.37 0.35 0.33 0.32 0.31 0.31 0.30 0.31 0.33 0.32 0.29 0.31 0.29 0.30 0.31 0.30 0.29 0.28 0.29 0.27 0.25 0.26 0.26 0.27
0.52 0.50 0.38 0.46 0.40 0.46 0.45 0.47 0.47 0.47 0.46 0.47 0.49 0.51 0.53 0.53 0.52 0.53 0.55 0.56 0.58 0.57 0.58 0.61 0.63 0.62 0.61 0.61 0.63 0.65 0.65 0.69 0.69 0.68 0.68 0.68 0.69 0.71 0.73 0.75 0.76 0.77 0.77 0.77 0.78 0.77 0.75 0.75 0.73 0.70 0.69 0.69 0.69 0.66 0.62 0.58 0.54 0.49 0.45 0.42 0.40 0.38 0.36 0.34 0.33 0.33 0.32 0.32 0.32 0.31 0.31 0.27 0.30 0.31 0.28 0.27 0.27 0.29 0.31 0.31 0.30 0.30 0.29 0.26 0.27 0.25
0.45 0.41 0.48 0.44 0.37 0.37 0.37 0.45 0.46 0.37 0.38 0.46 0.48 0.51 0.53 0.55 0.55 0.55 0.56 0.56 0.57 0.57 0.59 0.58 0.60 0.64 0.65 0.65 0.65 0.65 0.65 0.68 0.71 0.70 0.68 0.69 0.70 0.72 0.75 0.76 0.77 0.78 0.78 0.80 0.81 0.81 0.79 0.78 0.73 0.70 0.69 0.68 0.68 0.65 0.60 0.55 0.50 0.46 0.43 0.41 0.40 0.38 0.36 0.34 0.33 0.32 0.31 0.32 0.31 0.29 0.30 0.29 0.29 0.29 0.29 0.29 0.27 0.26 0.24 0.24 0.25 0.28 0.32 0.28 0.27 0.27
0.41 0.49 0.45 0.39 0.39 0.38 0.50 0.51 0.54 0.52 0.52 0.54 0.57 0.58 0.59 0.60 0.59 0.57 0.57 0.58 0.60 0.62 0.62 0.60 0.59 0.61 0.63 0.65 0.68 0.67 0.68 0.69 0.70 0.72 0.70 0.71 0.72 0.76 0.78 0.78 0.78 0.77 0.78 0.80 0.79 0.78 0.76 0.75 0.72 0.71 0.69 0.68 0.67 0.62 0.58 0.52 0.46 0.44 0.41 0.39 0.38 0.38 0.35 0.33 0.33 0.32 0.31 0.31 0.30 0.28 0.29 0.29 0.28 0.28 0.29 0.28 0.28 0.29 0.28 0.27 0.26 0.29 0.27 0.28 0.28 0.27
Wind_Speed
34 32 33 33 32 33 32 31 28 23 23 24 24 24 21 21 21 18 15 17 21 19 18 19 18 17 15 15 16 17 18 18 18 17 16 17 17 17 16 15 14 15 15 16 17 17 16 16 15 15 15 13 12 12 11 11 11 11 11 11 11 11 10 10 10 10 9 9 8 8 8 7 7 6 6 6 6 6 6 7 7 8 8 9 9 9
34 33 34 34 31 32 32 31 28 24 23 23 24 23 22 20 19 18 17 17 21 19 17 19 18 16 16 15 16 17 17 18 19 18 17 17 17 16 17 14 13 14 14 14 15 16 16 16 16 14 13 12 12 12 11 10 10 10 10 10 10 10 10 10 10 9 9 9 8 8 7 7 7 6 6 7 7 7 7 7 8 8 9 9 10 10
34 33 34 34 31 31 31 31 28 24 23 23 23 23 22 21 18 17 18 18 20 19 17 19 18 16 16 16 16 17 17 17 18 18 18 18 17 16 16 14 14 14 14 15 15 16 15 15 15 13 12 12 11 12 11 10 10 10 10 10 10 10 10 10 9 9 9 8 8 7 7 7 7 7 7 7 7 7 7 8 9 9 9 9 10 11
33 33 33 33 32 31 31 31 29 25 24 23 24 23 22 23 19 16 19 19 19 19 19 20 17 15 16 16 16 17 16 16 16 16 17 18 17 16 16 15 14 14 15 16 14 14 15 14 13 12 12 12 11 11 11 10 10 10 10 10 9 9 9 9 9 9 8 8 8 8 7 7 7 7 7 7 7 7 7 8 9 9 10 10 10 11
32 31 33 33 32 31 31 31 30 27 25 25 25 24 21 23 20 16 18 20 18 18 20 20 17 16 17 17 17 17 16 16 15 15 16 17 17 16 16 16 14 14 16 17 15 13 13 13 13 12 11 12 11 11 10 10 11 10 10 9 9 9 8 9 9 9 9 9 9 8 8 8 8 7 7 7 7 7 8 8 9 10 10 10 11 11
32 31 32 33 32 32 31 30 31 28 25 25 26 24 21 22 21 17 18 21 18 18 21 22 18 16 18 19 18 17 17 17 17 16 17 17 18 17 16 16 15 14 17 19 18 15 14 14 13 11 11 11 11 11 10 10 11 10 10 9 9 8 8 8 8 8 9 9 9 9 8 8 8 7 7 7 7 8 8 8 9 9 10 10 11 12
31 32 32 32 33 33 31 30 31 30 26 24 26 25 20 20 22 19 19 21 19 18 21 23 19 15 17 20 19 19 19 18 18 18 18 17 18 17 16 16 15 14 16 19 20 18 15 14 12 11 10 11 11 11 11 11 11 10 9 9 8 8 8 8 8 8 8 8 8 8 8 8 8 8 8 8 8 8 8 8 9 9 10 11 11 12
32 33 33 33 33 32 32 30 31 31 26 22 25 26 22 20 21 20 20 21 18 15 18 22 21 17 16 19 20 20 20 19 19 19 18 18 18 17 16 16 15 14 16 19 20 18 16 14 12 11 11 11 11 11 11 11 10 10 9 9 8 8 8 8 8 8 8 8 8 8 9 9 8 8 8 8 8 8 9 9 10 10 11 11 12 13
31 33 33 34 33 31 31 30 30 31 27 21 23 26 23 21 21 20 20 19 17 17 18 20 22 19 16 17 19 21 21 20 21 21 19 19 19 18 17 16 16 15 17 20 20 17 16 14 12 12 12 12 11 11 11 10 10 9 9 8 8 8 8 7 7 7 7 7 8 8 8 9 9 9 9 9 9 9 10 10 11 11 12 12 13 14
30 33 33 33 32 30 30 29 29 31 27 21 23 25 23 22 21 20 21 19 17 20 20 20 22 21 17 17 19 20 22 21 21 21 20 20 19 18 18 17 16 16 17 19 19 17 16 14 13 13 13 12 12 11 11 10 10 9 9 8 8 8 8 7 7 7 7 7 8 8 8 9 9 9 10 10 10 10 11 11 12 12 13 13 14 14
29 31 31 32 30 29 29 28 29 31 28 22 23 24 23 22 21 20 21 19 18 21 22 20 22 22 18 18 20 21 21 21 20 20 20 20 20 20 20 18 17 17 17 18 18 17 16 14 13 13 13 12 12 11 11 10 10 9 9 8 8 8 8 8 7 7 8 8 8 9 9 9 10 10 10 11 11 12 12 12 13 13 13 13 13 13
29 31 30 31 31 29 29 27 28 30 28 24 24 25 23 22 21 21 21 21 19 20 23 22 22 23 21 18 19 21 21 21 20 20 21 21 21 21 20 18 17 17 16 17 18 17 15 14 14 14 13 12 12 11 11 11 10 9 9 8 8 7 8 8 8 8 9 9 9 9 9 10 10 11 11 11 12 12 13 13 13 13 13 14 14 14
29 30 30 30 31 30 29 28 28 29 29 27 26 27 25 23 22 22 22 22 21 19 20 22 22 22 20 17 18 21 20 20 20 19 20 22 22 21 19 18 17 17 16 18 18 17 16 16 15 15 13 12 12 12 12 11 10 9 8 8 7 7 8 9 9 9 9 10 10 10 10 10 11 11 11 11 12 12 13 13 14 14 14 14 14 14
28 29 30 31 30 31 31 30 29 29 30 30 29 28 27 24 22 23 22 21 21 18 18 21 21 21 20 17 17 19 19 19 19 19 20 21 21 20 19 18 18 18 18 19 19 18 17 17 16 15 14 13 13 12 12 11 10 9 8 8 7 8 9 9 9 10 10 10 10 10 10 10 11 11 11 12 12 13 13 14 14 14 14 14 14 14
29 28 31 32 30 32 33 30 29 29 29 30 29 28 27 24 22 22 22 21 21 19 19 21 20 19 20 17 16 17 18 18 18 19 20 19 19 18 19 19 18 19 19 20 21 20 19 18 17 15 15 15 13 12 11 10 10 9 8 8 8 8 9 9 10 10 11 11 11 11 11 11 11 11 12 12 12 13 13 14 14 13 13 13 14 14
29 26 30 32 29 32 33 30 29 29 28 29 28 27 28 26 22 20 19 18 19 18 19 21 19 17 17 17 17 18 18 19 19 19 19 18 19 19 19 20 19 19 20 21 21 20 20 19 18 16 16 14 13 12 11 10 9 8 8 8 8 8 9 9 10 10 10 11 11 11 12 12 12 12 12 13 13 13 13 13 13 13 13 13 14 14
27 24 29 31 28 31 32 29 29 29 27 27 29 28 26 24 22 20 18 16 17 18 18 20 20 18 17 17 18 19 20 20 20 19 19 18 20 20 20 21 20 20 20 20 21 20 19 20 19 17 15 14 12 12 11 10 9 8 7 7 7 8 9 9 10 10 10 11 11 11 12 12 13 13 13 13 13 13 13 13 13 13 13 14 14 14
24 23 28 30 28 30 31 29 29 30 27 26 28 28 24 22 21 21 20 18 20 20 18 20 22 21 20 18 18 21 21 21 20 19 19 19 20 21 21 22 21 21 20 20 21 21 20 20 19 18 16 14 12 12 11 10 9 7 7 6 7 8 9 9 10 10 11 11 11 12 12 12 13 13 14 14 14 14 14 14 14 14 14 14 14 14
24 21 25 29 28 29 30 28 28 31 29 26 27 27 25 24 23 23 22 20 22 22 19 20 23 22 21 20 20 22 22 22 21 20 20 21 21 21 21 22 21 21 20 20 20 20 20 20 20 18 16 14 13 13 11 10 9 7 6 6 7 8 8 9 10 10 11 11 12 12 12 12 13 13 13 14 14 14 14 14 14 14 14 14 14 15
24 21 23 27 28 28 28 29 29 31 30 27 26 28 28 25 23 24 25 22 21 21 20 19 20 21 22 21 21 22 22 22 21 21 21 22 22 22 21 22 21 21 20 20 20 20 20 21 20 18 16 14 14 14 12 10 9 7 7 7 7 8 8 9 9 10 10 11 12 12 12 12 13 13 13 13 14 14 14 14 14 14 14 14 15 15
25 21 22 26 27 28 28 29 30 30 30 29 27 28 29 26 23 22 25 24 21 20 20 19 19 19 20 21 22 22 22 22 22 21 21 22 23 22 22 22 21 21 20 20 20 19 20 20 20 18 16 15 15 14 13 11 10 8 8 7 8 8 8 8 9 10 10 11 11 11 12 12 12 13 13 13 13 13 14 14 14 14 15 15 15 16
25 22 23 26 27 27 28 29 29 29 29 30 28 28 28 28 25 23 23 24 23 21 19 19 18 17 17 19 21 22 21 21 22 22 21 22 23 22 22 22 21 21 21 20 20 19 20 20 20 20 18 16 15 15 13 12 11 10 9 9 9 9 9 9 10 10 10 11 11 11 11 12 12 13 13 13 13 13 13 14 14 15 15 15 16 16
24 22 22 24 26 26 25 27 29 28 29 30 29 28 28 27 28 26 23 22 24 22 19 18 17 14 15 17 19 20 21 21 22 22 22 22 22 22 22 22 21 21 21 20 20 20 20 20 20 20 20 17 16 15 14 13 12 10 10 10 10 10 10 10 11 11 11 11 11 11 12 12 12 13 13 13 13 13 13 14 14 15 15 16 16 17
23 22 22 22 24 24 22 24 27 27 27 29 29 29 28 28 28 27 23 21 23 25 23 20 17 15 15 16 18 19 20 21 21 22 22 21 21 21 21 22 22 22 22 21 20 20 20 20 20 20 19 18 16 15 14 13 13 11 10 10 11 10 11 11 11 11 11 11 12 12 12 12 13 13 13 13 13 13 14 14 14 15 15 16 16 17
23 23 23 22 22 23 23 24 27 28 28 28 28 29 29 28 28 27 24 21 22 24 25 23 20 17 16 17 19 19 19 20 21 21 22 21 20 21 21 21 22 22 22 21 21 21 20 20 20 20 19 18 17 15 15 14 13 11 11 11 11 11 11 12 11 11 11 12 12 12 12 12 13 13 13 13 13 13 14 14 14 15 15 16 17 18
22 22 23 22 22 23 24 25 26 28 29 27 28 30 30 29 29 28 25 23 23 22 23 24 20 17 16 18 20 21 19 20 21 21 21 20 20 21 21 21 22 22 22 22 21 21 21 20 21 20 19 18 17 16 15 14 13 12 12 12 12 12 12 12 12 12 12 12 12 12 12 12 13 13 13 13 13 13 14 14 14 15 16 16 17 18
21 22 23 22 20 22 22 23 24 26 28 28 28 29 30 30 30 28 26 26 24 22 22 23 21 18 18 20 21 22 21 21 21 21 21 21 21 21 21 21 22 22 22 22 22 21 21 21 21 20 19 18 17 16 15 14 13 13 13 12 12 12 12 12 12 12 12 12 12 12 12 12 12 12 13 13 13 13 13 14 14 15 16 16 17 18
21 22 24 20 17 18 19 20 22 25 27 28 28 29 29 30 30 29 28 26 24 22 22 22 22 21 20 20 21 21 21 21 21 22 21 21 21 21 21 21 22 22 22 22 22 21 21 21 21 20 18 18 17 16 15 14 13 13 13 13 13 13 13 13 13 12 12 12 12 12 12 12 12 12 12 12 12 13 13 14 14 15 15 16 17 18
20 21 24 22 17 16 17 18 20 23 26 27 28 29 29 30 31 30 29 26 23 22 20 19 22 24 22 22 22 21 21 20 20 21 21 21 21 21 21 21 22 22 22 22 22 21 21 22 21 19 18 17 16 16 15 14 13 13 13 13 13 13 13 13 13 12 12 12 12 12 12 12 12 12 12 12 12 12 13 13 13 14 14 15 16 16
19 18 22 22 19 18 17 17 19 22 24 26 27 29 29 30 31 30 30 28 25 23 20 17 20 22 20 22 23 22 21 20 19 20 21 21 21 21 21 22 22 22 23 23 23 23 22 21 20 18 17 17 16 15 14 13 13 13 13 13 13 13 13 13 13 12 12 12 12 12 12 12 12 12 12 12 12 12 12 12 12 13 14 14 14 15
19 16 20 21 19 19 18 16 18 21 23 25 27 27 28 29 30 30 30 29 27 26 23 20 20 19 18 19 21 21 21 21 20 21 21 22 22 21 21 22 22 23 23 24 23 23 22 20 19 18 17 17 16 15 14 13 13 13 13 13 13 13 13 13 13 12 12 12 12 12 12 12 12 11 11 11 11 11 11 11 12 12 13 13 13 14
20 16 19 20 18 19 19 17 17 18 20 24 26 27 28 28 28 28 28 28 27 26 25 24 23 20 18 19 20 21 21 22 22 22 22 22 23 23 22 23 23 24 24 23 23 22 21 20 19 18 17 17 16 15 14 13 13 13 13 13 13 13 13 13 12 12 11 11 11 11 11 11 11 10 10 10 10 10 10 10 11 11 11 12 13 14
21 17 18 20 18 17 18 17 16 16 18 21 23 25 27 28 27 26 25 25 26 26 25 24 23 21 19 20 20 21 22 23 23 23 23 22 23 23 23 23 24 25 24 24 24 23 21 20 19 18 18 17 16 14 13 13 13 13 13 13 12 12 12 12 12 11 11 10 10 11 11 10 9 9 9 9 9 9 9 9 9 10 11 11 12 13
22 19 17 19 18 17 18 16 15 17 17 16 18 20 22 24 25 26 25 25 25 25 23 21 21 20 20 21 21 22 22 23 23 24 23 22 23 23 23 23 24 25 24 24 24 23 22 20 19 19 18 16 15 14 13 13 13 13 12 12 12 12 12 11 11 10 10 9 9 9 10 9 8 7 7 7 7 7 7 8 8 9 10 11 11 12
22 20 17 18 18 16 17 17 16 17 15 13 14 17 19 20 22 23 24 24 24 24 22 21 20 20 21 21 21 20 21 22 22 23 23 23 23 23 22 23 24 25 24 23 23 23 22 21 20 18 17 16 15 14 14 13 13 12 12 12 11 11 11 11 10 10 9 9 8 8 7 7 7 6 6 6 6 6 7 7 8 9 10 10 11 12
21 20 18 18 17 16 17 18 16 14 14 13 13 15 17 18 20 22 22 23 24 24 23 22 21 20 20 20 19 19 20 20 21 22 23 23 23 23 22 23 24 25 25 24 24 24 23 21 20 18 16 16 15 15 14 13 12 12 12 11 11 11 11 10 10 9 9 8 7 7 6 6 6 6 5 5 6 6 7 7 8 8 9 10 11 12
20 20 19 17 17 16 17 18 16 13 14 15 14 15 16 17 19 21 21 22 24 24 23 22 21 20 20 19 19 19 19 19 19 20 22 23 23 24 23 23 25 25 25 25 25 23 22 21 19 18 16 16 16 15 14 13 13 12 12 11 11 11 10 10 9 9 8 7 7 6 6 6 5 5 5 5 6 6 6 7 7 8 9 10 11 12
19 20 20 18 17 17 17 18 17 15 16 16 15 16 16 15 16 17 18 19 21 23 23 22 21 21 21 20 19 19 19 19 18 19 22 24 23 23 23 24 25 26 25 25 24 22 21 20 19 18 17 16 15 14 14 13 13 13 12 12 11 11 10 10 9 8 8 7 7 6 6 6 6 5 5 5 5 6 6 6 7 8 9 10 11 12
18 18 19 19 18 18 18 18 18 17 16 14 14 15 16 15 15 16 17 18 19 22 23 22 22 22 21 21 21 21 20 20 19 19 21 23 23 24 23 23 23 24 24 24 23 22 21 20 19 18 17 16 15 15 14 14 14 13 12 12 11 11 10 9 9 8 8 7 7 6 6 6 6 6 5 5 5 5 6 6 7 8 9 10 11 12
18 17 18 19 19 19 20 18 18 17 15 13 14 15 16 16 15 17 17 16 17 20 22 22 22 23 22 22 22 22 21 19 18 18 22 23 23 23 23 22 23 23 23 23 23 22 22 21 19 18 17 16 16 15 15 15 14 14 13 12 11 11 10 10 9 9 8 7 7 7 7 7 6 5 5 4 5 5 6 7 8 9 10 11 11 12
17 17 18 19 18 19 20 19 18 17 15 14 15 16 16 16 17 18 17 14 15 18 19 21 22 22 22 23 22 22 21 18 16 18 22 23 23 22 22 22 23 23 24 24 23 22 21 20 19 18 17 17 16 16 16 15 14 13 13 12 11 11 10 10 9 9 8 8 7 7 7 6 5 5 4 4 5 6 6 7 8 9 10 11 12 13
16 16 17 18 18 18 19 19 19 17 15 15 15 15 16 17 17 17 15 14 15 17 18 19 21 21 22 22 22 21 20 18 17 20 23 23 23 23 23 24 24 24 24 24 23 23 22 20 19 19 18 17 17 17 16 15 14 13 12 12 12 11 11 10 10 9 8 8 8 7 6 6 5 4 4 5 6 6 7 8 8 9 10 11 12 13
14 15 16 17 17 17 17 19 19 16 15 17 16 15 16 17 15 14 14 15 16 17 18 19 20 21 22 23 22 21 20 19 20 22 23 22 22 23 25 25 25 24 24 24 23 23 22 20 20 19 18 18 17 17 16 15 14 13 13 13 12 12 11 11 10 9 8 8 8 7 6 5 5 5 5 6 6 7 7 8 9 10 10 11 12 13
13 14 14 15 16 17 17 17 16 13 14 17 17 15 15 15 14 14 15 15 15 17 18 19 19 20 22 22 22 22 21 22 22 23 23 22 22 24 25 25 24 24 24 24 24 23 22 21 20 19 19 18 17 17 16 15 14 14 13 13 13 12 12 11 10 9 9 8 7 6 5 5 5 5 6 6 7 7 8 8 9 10 11 12 13 13
11 12 12 12 13 15 15 14 13 13 14 15 14 14 14 14 14 14 15 15 15 17 18 18 19 20 21 21 21 22 22 22 23 23 24 23 23 24 25 25 25 25 25 24 24 23 22 21 21 20 19 18 17 17 16 15 15 14 14 14 14 13 12 11 10 10 9 8 7 6 5 5 5 6 6 7 7 7 8 9 10 11 11 12 13 13
10 11 12 12 11 13 14 14 13 14 16 16 15 14 14 15 15 15 15 15 16 17 18 18 19 20 20 20 20 21 21 22 23 23 24 24 24 24 25 25 26 26 25 25 24 23 22 21 21 20 19 18 18 17 16 16 16 15 15 15 14 13 12 11 10 10 9 8 7 6 6 6 6 6 6 7 7 8 8 9 10 11 11 12 12 13
11 12 12 12 11 13 14 14 14 14 15 16 16 15 15 16 16 15 15 15 16 17 18 18 19 20 20 20 20 20 21 22 23 23 24 25 24 24 25 26 26 26 25 24 23 23 22 22 21 21 20 19 18 17 17 17 16 16 16 15 14 13 12 11 11 10 9 8 7 7 6 6 6 6 6 7 7 8 9 9 10 11 11 12 12 13
10 11 12 11 11 12 11 11 13 13 14 15 16 15 15 15 15 15 15 15 16 16 17 18 19 20 20 20 20 20 21 22 23 23 24 25 24 24 25 26 26 25 25 24 23 23 22 22 22 21 20 19 18 17 17 17 17 17 17 15 14 13 13 12 11 10 9 8 7 7 7 7 7 7 7 7 8 8 9 9 10 10 11 11 12 12
9 11 11 11 12 12 11 11 12 13 14 15 16 16 15 14 14 15 15 15 16 16 17 18 19 20 20 21 21 21 21 22 23 24 24 24 24 24 25 27 27 25 24 24 23 22 22 22 22 21 20 19 18 18 18 18 18 18 17 15 15 14 13 12 11 10 9 9 8 8 7 7 7 7 7 7 7 8 8 9 9 10 10 11 11 12
10 10 11 11 12 12 11 12 12 12 12 13 15 16 16 16 15 16 16 16 16 17 17 18 18 19 20 21 22 22 22 21 22 24 24 24 24 25 26 27 26 25 24 23 22 21 21 22 22 21 20 19 18 18 19 19 19 18 17 16 15 14 13 12 11 10 10 9 8 8 8 7 7 7 7 7 7 7 7 8 9 9 10 10 11 11
10 10 10 11 11 11 10 10 12 13 12 11 12 15 16 16 16 17 17 17 17 17 17 18 18 19 20 21 22 22 22 22 23 24 24 24 25 26 27 27 26 24 24 23 22 22 22 22 22 21 21 20 19 19 19 19 19 18 17 16 15 14 13 13 11 11 10 9 9 8 8 8 7 7 7 7 7 7 7 7 8 9 9 10 10 11
Wind_Direction
203 205 207 208 208 206 205 206 208 210 210 205 203 207 209 207 207 206 202 203 204 206 206 207 205 200 203 204 202 204 205 204 202 203 204 200 198 201 201 203 206 208 210 209 209 209 209 209 209 205 203 201 197 196 192 187 189 188 187 190 194 198 202 205 207 209 212 216 219 223 226 230 234 237 240 242 245 250 255 260 266 273 278 283 289 292
204 208 208 207 207 205 204 205 206 207 206 204 204 206 207 207 205 203 202 202 204 207 206 204 201 198 201 202 202 204 205 206 204 202 201 201 204 206 201 201 205 210 216 214 208 207 206 204 204 202 200 199 197 198 196 193 193 190 189 192 195 200 203 206 208 211 215 219 223 226 228 231 235 241 245 247 249 254 261 267 271 276 279 283 287 289
205 209 207 205 206 204 202 204 204 204 205 205 205 205 207 205 200 199 200 200 204 208 204 198 197 198 200 201 203 205 205 206 207 203 200 200 205 208 204 204 208 208 211 212 208 204 202 201 201 202 201 199 197 198 197 195 197 196 196 197 197 200 203 206 209 212 216 219 224 227 230 234 238 244 251 253 254 257 264 270 273 277 280 282 285 288
204 207 205 203 203 201 200 202 204 205 206 207 206 205 206 203 202 204 201 198 203 206 201 195 197 200 201 202 204 207 206 206 208 205 203 203 206 209 207 206 208 206 204 207 208 204 202 200 198 199 202 201 198 198 197 196 197 198 198 198 198 200 204 207 210 213 217 219 222 227 232 237 242 246 252 255 255 258 264 270 274 278 281 283 286 289
205 205 202 200 200 199 200 202 204 205 206 207 206 206 205 202 204 206 197 194 198 201 198 195 198 205 205 203 205 209 209 207 207 205 204 207 208 209 209 208 210 209 203 203 206 208 208 203 197 193 195 196 195 196 197 196 196 194 194 196 197 201 204 208 212 215 219 221 224 229 235 240 243 245 250 252 256 262 268 273 277 279 281 284 287 290
205 202 199 198 199 201 202 203 203 204 204 205 206 206 205 202 201 198 192 194 199 203 201 200 205 209 208 206 205 206 208 207 206 205 204 205 207 207 209 211 212 210 206 204 204 206 204 200 195 189 189 189 190 193 193 192 191 190 191 193 196 200 203 207 212 216 220 224 227 232 235 238 240 243 249 256 262 267 271 274 277 281 283 286 289 292
204 200 198 199 200 201 202 204 203 202 204 205 204 203 203 200 198 198 197 199 205 206 203 206 212 211 209 209 206 205 206 205 205 205 203 203 204 205 207 209 208 206 205 200 195 195 197 199 196 190 186 184 184 186 186 186 187 188 191 193 196 199 203 208 212 218 223 227 232 235 237 241 244 247 252 259 264 267 270 273 277 282 286 289 292 294
201 197 198 199 199 200 203 204 202 201 204 205 200 199 202 201 200 201 202 204 207 205 202 209 215 214 211 211 207 205 204 204 206 207 205 206 207 206 206 206 204 203 197 190 188 193 200 202 196 188 184 183 184 184 183 183 184 187 190 192 196 199 204 208 213 219 226 231 235 238 239 243 247 249 252 257 262 264 269 273 276 281 286 290 293 294
200 197 196 197 198 201 203 203 201 200 204 203 196 198 202 203 203 204 205 207 211 209 207 209 212 216 213 207 205 205 205 205 207 209 210 210 209 207 206 203 199 198 192 187 189 192 194 195 191 184 180 180 182 182 180 180 182 187 190 193 198 201 206 210 216 223 230 235 238 240 240 242 245 247 250 256 261 265 270 274 279 282 285 289 292 295
201 199 197 197 200 202 202 202 199 199 203 201 196 198 201 204 206 207 208 211 212 214 214 208 208 215 213 204 205 207 207 208 209 211 213 211 209 207 205 200 195 194 191 188 188 187 187 191 190 182 176 176 179 180 179 180 183 187 191 195 200 205 211 217 224 230 236 241 243 243 243 244 248 251 255 260 264 269 273 277 281 284 286 289 293 297
198 197 198 199 201 202 201 200 198 199 202 199 197 199 201 204 207 208 211 214 214 215 216 210 208 215 216 209 210 212 212 211 209 210 211 210 209 205 203 200 195 194 192 189 188 188 190 193 190 184 179 176 177 180 181 181 184 187 191 197 202 209 217 226 233 238 243 247 248 248 248 249 252 256 259 263 267 271 274 277 281 285 289 292 295 298
193 194 198 200 201 201 198 198 197 200 202 199 199 200 201 203 206 209 211 213 217 217 216 211 207 214 220 217 213 215 214 211 210 210 209 208 207 204 203 201 198 197 194 190 189 191 192 192 190 188 184 178 178 183 185 184 186 190 195 202 209 218 227 235 240 245 249 252 252 251 252 254 256 258 260 263 267 271 274 278 282 286 290 293 295 297
192 195 196 197 200 199 197 196 197 199 201 200 200 199 200 201 204 208 209 211 217 217 212 208 206 214 222 220 214 212 212 211 211 211 209 207 204 202 200 200 201 201 196 191 191 194 197 196 192 190 188 186 187 189 189 190 192 198 205 211 220 232 238 242 245 249 253 254 252 252 254 257 259 260 262 264 268 272 275 279 283 287 290 293 295 298
191 194 196 196 199 199 199 198 197 198 199 200 200 200 201 202 203 207 208 209 213 212 208 207 208 216 220 217 213 210 208 210 210 209 208 205 201 198 199 200 201 201 197 195 196 199 200 198 194 194 191 186 187 190 193 198 202 207 215 221 232 242 246 248 249 252 255 255 254 255 257 259 261 263 265 267 271 274 277 280 284 287 289 293 296 298
189 194 196 195 197 197 199 201 199 198 199 201 202 203 205 206 206 208 209 210 211 208 206 206 210 218 218 215 216 215 212 212 210 208 205 201 196 196 199 201 199 198 198 199 200 200 198 196 196 196 189 183 187 194 198 201 203 209 221 231 241 246 247 250 252 253 255 256 257 259 260 262 264 266 267 270 272 275 278 280 283 287 289 292 295 298
192 195 194 194 196 195 197 201 199 197 200 201 203 206 209 210 210 210 211 212 210 208 208 209 214 220 219 218 218 219 217 213 211 206 200 196 196 198 201 201 200 200 199 200 201 199 198 198 197 193 189 188 194 200 202 203 206 215 229 239 244 246 247 249 251 253 255 258 261 263 265 266 267 268 269 270 273 275 278 280 282 286 288 290 294 297
193 193 189 192 196 195 197 199 198 198 199 199 204 207 208 210 212 209 208 209 209 212 212 211 215 215 216 219 216 215 214 210 209 206 198 196 198 200 202 202 201 201 200 202 202 199 198 198 195 193 193 197 201 205 208 210 214 224 234 241 248 250 250 252 253 255 257 259 263 265 267 268 268 268 268 268 271 273 275 278 280 283 286 290 293 297
190 188 189 192 195 196 198 199 200 202 202 201 204 204 203 208 213 211 210 210 213 218 216 213 216 215 215 219 214 210 210 208 208 206 200 199 199 200 202 202 201 200 202 205 204 200 197 194 193 195 200 204 207 208 209 211 215 225 235 246 253 252 253 256 258 259 261 261 264 266 268 269 269 268 267 266 268 270 273 276 278 281 285 289 293 297
190 187 190 194 194 194 197 199 201 204 206 207 207 205 205 209 213 212 213 213 214 218 220 217 217 217 218 218 211 209 210 207 206 205 202 201 200 201 201 200 200 200 202 204 204 203 200 195 194 197 202 208 211 207 205 208 215 228 244 256 257 254 255 258 260 263 264 264 265 267 269 270 270 268 267 266 267 269 272 275 278 281 285 289 293 296
193 190 190 194 194 193 197 201 203 203 205 208 209 208 210 213 215 214 215 216 216 219 221 218 218 222 223 217 210 210 211 208 206 205 204 202 201 200 199 198 198 200 202 203 205 205 202 198 197 199 203 208 209 207 208 214 223 237 254 260 256 255 257 261 264 266 267 268 268 268 269 269 269 268 267 267 268 270 272 275 278 280 284 288 292 296
195 194 190 191 193 195 199 203 203 202 202 205 208 208 208 211 215 215 215 217 219 221 221 220 223 226 223 217 213 212 211 209 208 206 205 202 201 200 199 199 199 200 203 204 206 207 204 201 200 201 204 207 208 211 217 225 235 246 256 258 256 257 260 264 268 268 269 270 269 269 269 269 269 268 268 270 271 272 274 276 279 281 285 289 292 296
194 195 190 190 194 198 202 203 204 205 205 206 209 210 209 211 213 214 214 215 219 223 224 223 223 222 220 220 218 214 212 211 208 207 205 203 201 200 199 200 200 201 203 204 206 207 206 204 203 204 209 213 214 218 224 232 240 248 254 258 258 261 265 267 269 271 271 269 269 271 271 271 270 270 270 272 275 277 278 279 281 283 285 288 292 296
193 193 190 193 197 199 200 201 205 208 207 208 211 213 212 214 214 215 216 215 217 221 223 224 224 220 221 222 218 214 212 210 209 207 206 204 202 201 200 200 201 203 204 204 205 207 206 207 208 209 212 215 218 221 227 234 241 247 253 257 259 262 265 267 270 273 272 270 270 273 274 274 274 272 273 274 276 279 280 281 282 284 285 288 292 296
192 193 190 191 195 199 201 202 206 210 210 210 212 213 214 215 214 217 221 221 218 219 220 224 228 224 222 221 217 214 211 208 208 207 206 205 203 202 200 200 202 203 204 205 206 207 206 208 211 211 212 215 219 222 229 237 243 248 254 257 260 262 265 268 271 273 272 271 273 276 277 277 276 275 275 275 277 278 279 281 282 285 287 290 294 297
191 193 192 189 191 197 201 203 207 209 210 211 212 212 214 214 213 215 220 222 221 221 221 225 228 225 222 219 215 213 211 207 207 207 206 205 204 203 202 202 202 202 203 204 205 206 206 208 210 211 213 216 220 225 232 238 244 250 254 258 261 263 265 268 271 272 272 273 276 277 279 279 278 277 277 276 278 278 280 282 283 286 289 292 295 298
192 195 195 194 195 198 201 204 206 205 207 211 212 212 213 214 213 214 217 220 222 223 221 223 225 222 221 218 212 211 213 209 207 207 206 205 205 205 205 205 205 204 204 204 205 206 208 210 211 212 214 218 223 228 233 238 245 250 252 257 261 264 266 267 269 271 272 275 278 279 281 280 279 278 277 277 278 279 281 283 285 287 291 294 296 299
196 198 199 201 204 205 206 208 206 205 207 210 211 212 213 214 214 216 219 222 223 224 223 223 221 217 217 217 212 212 214 211 209 208 206 205 205 205 206 207 207 206 206 206 207 208 209 210 212 214 217 221 225 229 234 240 246 248 250 255 260 263 265 267 268 270 273 277 280 281 281 280 279 279 279 279 279 281 282 284 286 289 292 295 297 300
196 199 200 203 205 205 206 205 204 206 209 210 212 213 214 214 215 217 220 222 223 223 225 222 218 218 218 216 214 214 214 213 210 208 208 207 205 205 206 207 207 207 207 207 207 208 209 211 213 215 218 221 224 229 236 243 246 247 249 255 259 262 264 267 268 270 274 277 279 280 279 278 279 279 280 280 280 282 283 285 287 290 293 297 299 302
197 199 199 202 202 202 204 204 205 209 211 212 213 214 215 215 216 218 220 221 220 221 224 220 217 221 221 217 215 216 215 214 211 208 208 208 207 206 205 204 205 206 205 205 206 206 208 211 213 216 219 222 226 232 238 243 244 245 249 254 257 261 263 266 267 270 273 276 278 278 278 277 278 279 279 280 281 282 284 287 290 293 296 300 302 305
198 196 195 200 202 202 204 205 207 210 212 213 214 215 215 216 217 219 220 220 221 223 225 222 219 222 223 219 217 217 216 215 212 210 208 207 208 208 206 204 204 204 204 204 205 207 209 211 212 216 220 224 229 234 239 242 242 243 248 252 256 260 263 265 268 270 273 275 276 277 278 278 277 278 278 279 281 283 286 289 292 296 299 302 306 309
197 195 192 197 200 201 202 205 208 212 213 215 216 216 216 216 217 218 220 221 222 223 225 225 225 225 224 219 215 214 215 214 213 212 210 209 209 208 207 206 204 204 206 206 207 209 211 212 214 218 222 225 230 235 239 239 239 243 248 252 256 260 263 265 267 269 272 274 276 277 277 277 277 276 277 279 282 284 286 290 294 298 301 305 309 312
196 196 194 197 201 201 202 206 210 212 214 216 217 216 215 216 217 218 219 220 220 222 224 226 228 228 223 218 215 214 215 215 214 212 211 211 211 210 210 208 205 205 206 207 209 211 212 214 216 219 222 226 231 236 236 235 239 245 249 253 257 260 263 264 265 268 271 273 274 275 276 276 275 274 276 279 282 285 288 292 296 300 304 308 311 313
197 197 196 199 203 200 199 205 209 209 213 217 218 217 216 217 217 217 218 219 220 222 224 225 228 228 221 217 217 217 217 218 217 215 212 211 211 211 211 209 206 205 205 207 209 211 213 215 218 219 222 226 231 233 233 235 240 247 250 253 257 259 261 263 264 266 269 271 273 274 274 272 271 272 277 280 283 286 290 294 298 302 306 310 312 314
196 199 199 199 203 201 198 203 209 210 213 217 219 219 218 217 217 217 219 220 220 223 225 227 228 224 217 215 217 218 218 220 219 216 214 212 211 212 211 208 206 206 206 207 209 211 213 214 216 219 222 226 229 230 232 237 243 249 251 253 256 258 259 260 262 264 267 270 273 274 272 268 264 266 273 278 284 291 295 299 303 306 309 311 313 315
194 199 200 201 205 204 199 204 210 213 214 217 218 217 217 217 218 220 222 222 220 221 223 225 225 220 217 218 219 218 218 219 219 218 216 214 212 212 211 208 205 205 207 207 208 209 211 211 214 218 221 225 227 228 232 239 244 248 249 250 252 254 254 256 257 259 262 266 270 272 270 263 255 259 270 280 289 297 303 306 309 311 313 314 316 319
196 199 200 202 206 205 203 207 213 214 213 214 216 214 213 216 217 219 223 223 220 220 221 222 222 220 218 217 217 217 217 217 219 220 218 215 213 212 211 209 206 205 206 207 207 208 209 211 214 217 220 223 225 228 234 240 243 244 244 246 248 249 251 252 252 254 257 261 264 264 261 255 250 258 274 286 295 303 308 310 312 315 317 319 321 322
199 200 201 203 207 208 208 210 213 218 217 218 219 213 211 215 215 217 224 225 219 218 219 219 219 217 215 214 213 214 214 214 219 221 219 215 214 212 211 209 207 206 205 206 207 208 210 212 214 216 219 222 224 228 234 238 240 239 240 242 244 245 247 248 248 250 252 253 254 253 250 249 251 260 273 285 295 304 309 312 316 319 322 323 325 325
203 204 205 206 208 211 213 213 214 220 222 220 218 211 210 216 216 217 225 225 218 216 216 216 215 213 212 212 212 212 213 216 222 223 218 215 214 213 211 207 206 206 205 205 206 207 208 210 213 217 219 221 224 231 235 236 235 234 235 238 240 242 244 244 244 245 244 243 242 241 242 247 252 260 271 283 295 304 309 314 319 321 323 325 327 328
204 207 209 210 210 211 215 217 218 220 221 218 213 209 210 216 218 220 226 226 219 214 214 216 215 213 212 211 211 214 218 223 228 225 217 214 214 213 211 206 203 203 202 203 204 204 207 211 215 217 220 222 226 232 234 233 231 231 233 236 238 240 240 239 239 238 235 233 233 236 240 246 251 259 271 283 293 302 309 315 319 322 324 326 327 330
204 206 209 213 213 212 215 220 222 221 220 215 212 210 209 213 217 220 225 225 217 213 214 216 215 214 213 212 213 217 222 229 233 223 214 213 213 212 209 205 201 200 201 202 203 204 208 213 215 217 220 224 228 231 230 228 229 231 233 234 236 236 234 233 231 229 226 226 230 235 240 244 250 259 270 281 290 299 306 312 318 323 325 327 329 331
203 207 210 214 215 213 215 220 223 223 220 216 212 208 207 212 219 222 225 225 217 213 215 216 215 213 212 211 215 222 226 232 232 217 209 211 212 210 207 203 200 201 202 202 203 206 210 213 214 217 221 225 228 227 226 227 228 230 231 231 231 229 226 224 223 220 221 223 228 233 237 240 247 255 265 279 290 298 306 312 317 321 325 328 331 333
201 205 209 214 216 216 217 220 223 224 220 213 209 209 213 218 222 224 226 228 224 218 217 220 219 217 214 214 219 225 227 228 224 212 208 211 212 211 209 205 202 204 204 203 205 209 212 213 214 217 222 225 225 224 225 227 227 227 228 226 223 219 217 216 215 215 217 221 225 229 232 236 245 255 268 282 291 299 306 312 317 321 324 327 330 333
202 204 209 212 214 215 216 218 221 224 217 206 205 214 222 225 227 227 227 229 228 222 219 222 222 220 219 219 222 225 225 224 219 213 210 212 213 213 210 206 205 205 204 204 207 209 210 212 214 218 221 223 224 225 226 225 223 223 222 218 213 212 210 210 211 212 215 218 221 224 229 237 249 264 275 285 292 299 305 311 316 322 325 326 327 330
206 208 212 212 211 214 216 216 220 223 213 206 211 221 226 226 229 232 230 229 228 223 220 222 222 220 220 221 222 224 223 221 217 213 211 212 212 211 208 206 204 203 203 204 207 208 209 212 215 218 220 222 224 225 223 221 219 217 214 209 207 207 206 206 208 211 213 216 217 222 232 244 259 271 279 287 293 299 305 311 315 321 324 325 326 329
210 212 216 215 213 216 219 219 221 221 214 212 220 228 228 227 229 233 232 229 227 225 223 223 221 219 220 220 221 222 222 218 214 212 211 211 210 209 207 205 203 202 202 204 206 208 210 212 214 216 218 220 221 220 220 218 214 209 206 204 204 203 203 205 208 210 211 213 217 226 238 251 265 274 281 288 293 298 306 312 315 318 320 323 327 330
215 215 219 222 221 220 221 220 222 223 220 220 224 228 230 230 229 231 233 232 229 228 227 226 223 220 219 219 219 221 220 215 211 211 210 209 208 207 205 203 202 201 201 203 205 207 210 212 213 213 214 217 217 216 216 214 209 204 202 201 201 201 202 205 207 208 210 214 220 230 242 256 269 276 282 289 295 301 307 311 314 317 320 322 326 330
214 215 219 223 221 220 220 220 221 223 222 222 224 227 230 230 230 232 235 234 232 230 229 228 225 221 219 219 220 220 216 212 209 209 208 207 206 204 202 201 201 201 201 203 206 207 209 211 212 212 212 213 213 212 210 209 206 203 200 199 199 201 203 205 207 209 213 218 225 236 249 260 269 276 282 288 295 301 307 311 314 317 320 323 326 329
211 214 218 219 216 216 218 218 219 222 223 223 224 226 228 228 230 233 234 234 232 231 230 229 225 221 219 220 220 217 213 210 209 207 205 204 204 202 201 200 200 201 202 204 206 207 209 210 210 209 208 207 208 208 207 206 205 202 198 199 201 203 203 206 209 211 216 222 230 242 252 260 267 274 281 288 295 301 306 310 314 319 323 326 327 328
207 211 214 216 216 217 219 216 216 220 223 222 222 224 226 227 230 232 233 234 233 231 229 227 224 221 219 218 217 214 210 209 208 204 202 203 203 201 200 199 199 201 203 204 205 207 209 209 206 203 202 203 204 206 205 204 203 200 199 200 203 204 205 208 211 214 219 226 235 244 251 258 265 273 280 288 297 303 308 312 315 318 322 327 330 331
212 214 214 217 221 223 222 218 218 224 227 223 223 226 227 230 233 234 235 235 234 231 228 224 223 221 218 216 215 212 209 208 205 201 201 203 203 200 197 197 198 200 201 201 203 206 206 204 201 201 201 202 204 204 204 202 200 200 201 202 203 205 206 208 211 216 222 229 237 243 249 256 263 271 280 288 294 301 309 317 321 322 323 327 330 332
220 222 220 223 225 223 224 226 229 233 236 233 232 232 231 232 235 236 236 235 233 230 226 222 219 218 216 215 214 211 208 205 202 201 201 202 201 198 196 196 198 199 199 200 203 204 203 201 201 201 201 201 202 203 201 199 199 200 203 203 203 204 205 207 212 218 224 232 238 242 248 255 262 271 281 287 292 296 301 309 318 324 326 328 329 329